Location: Alpha Ridge Park
(39.3209°N, 76.9128°W)
Time: 00:11:05
(UTC-04:00)

S-56A Canister/Altair - Pass Details

Date: 20 May 2019
Orbit: 633 x 2499 km, 38.9° (Epoch: 16 June)

Event Time Altitude Azimuth Distance (km) Brightness Sun altitude
Rises 05:47:40 0° 270° (W) 4,155 10.7 -1.3°
Reaches altitude 10° 05:50:06 10° 270° (W) 3,397 10.3 -0.8°
Maximum altitude 05:59:06 88° 183° (S) 1,799 9.5 0.7°
Drops below altitude 10° 06:12:35 10° 95° (E) 4,897 12.9 3.1°
Sets 06:16:48 0° 95° (E) 6,049 13.4 3.8°
